Terminal Aerodrome Forecast
Issued by NWS

Home | Current Version | Previous Version | Text Only | Print | Product List | Glossary On
Versions: 1 2 3 4 5 6 7 8 9 10 11 12 13 14 15 16 17 18 19 20
000
FTUS46 KMFR 300520
TAFOTH
TAF
KOTH 300520Z 3006/3106 36015G21KT P6SM OVC008
     FM300900 35013G19KT 5SM BR OVC004
      TEMPO 3012/3015 35008KT 3SM BR OVC002
     FM301600 35020G30KT P6SM SCT004
     FM302000 36025G35KT P6SM FEW012
     FM310000 36023G31KT P6SM SCT008 OVC012=

USA.gov is the U.S. government's official web portal to all federal, state and local government web resources and services.